Miscellaneous Local Product
Issued by NWS Hastings, NE

Home | Current Version | Previous Version | Text Only | Print | Product List | Glossary Off
Versions: 1 2 3 4 5 6 7 8 9 10 11 12 13 14 15 16 17 18 19 20 21 22 23 24 25 26 27 28 29 30 31 32 33 34 35 36 37 38 39 40 41 42 43 44 45 46 47 48 49 50

000
AXUS43 KGID 011902
MISGRI

GID CWA HOURLY WEATHER ROUNDUP
NATIONAL WEATHER SERVICE HASTINGS NE
200 PM CDT TUE SEP 01 2015

NOTE: "FAIR" INDICATES FEW OR NO CLOUDS BELOW 12,000 FEET WITH NO
SIGNIFICANT WEATHER AND/OR OBSTRUCTIONS TO VISIBILITY.

...SOUTH CENTRAL NEBRASKA...

CITY           SKY/WX    TMP DP  RH WIND       PRES   REMARKS
GRAND ISLAND   MOSUNNY   87  62  43 S16       29.92F
HASTINGS       SUNNY     87  65  47 SW7       29.92F
KEARNEY        MOSUNNY   84  63  48 S13       29.92F
ORD            MOSUNNY   89  62  40 E3        29.88F
YORK           MOSUNNY   86  68  54 S12G17    29.92F
AURORA         SUNNY     88  65  45 S10G18    29.92S
LEXINGTON      SUNNY     87  61  40 SW5       29.92S
HOLDREGE       MOSUNNY   85  59  41 S6        29.93S
HEBRON         MOSUNNY   90  60  36 S13G24    29.92F

...NEBRASKA PANHANDLE...

CITY           SKY/WX    TMP DP  RH WIND       PRES   REMARKS
CHADRON        SUNNY     91  46  21 SW9       29.88F
ALLIANCE       SUNNY     90  42  18 SW10      29.94F
SCOTTSBLUFF    SUNNY     89  50  26 VRB3      29.95F
SIDNEY         SUNNY     90  41  18 MISG      30.00F

...WESTERN AND NORTH CENTRAL NEBRASKA...

CITY           SKY/WX    TMP DP  RH WIND       PRES   REMARKS
VALENTINE      MOSUNNY   89  56  32 SE15G23   29.87F
AINSWORTH      PTSUNNY   83  65  55 S12       29.91F
ONEILL         PTSUNNY   79  70  73 E3        29.90F
BROKEN BOW     SUNNY     89  61  38 NE7       29.91F
IMPERIAL       SUNNY     88  53  30 W7        29.96F
NORTH PLATTE   MOSUNNY   87  58  37 W7        29.91F
MCCOOK         SUNNY     89  60  37 SW6       29.92F

...EASTERN NEBRASKA...

CITY           SKY/WX    TMP DP  RH WIND       PRES   REMARKS
NORFOLK        PTSUNNY   85  68  56 S12       29.89F
SO SIOUX CITY  PTSUNNY   84  69  60 S9        29.90S
TEKAMAH        PTSUNNY   86  71  60 S8        29.91F HX  91
COLUMBUS       PTSUNNY   86  68  54 S10G16    29.90F
ALBION         MOSUNNY   83  65  54 S13G18    29.90S
OMAHA EPPLEY   MOSUNNY   88  70  55 S13       29.93S HX  93
OFFUTT AFB     MOSUNNY   88  70  55 S10       29.93S HX  92
MILLARD        MOSUNNY   87  71  58 S10       29.93F HX  92
LINCOLN        SUNNY     91  68  46 S17       29.92F HX  95
NEBRASKA CITY  PTSUNNY   88  63  42 S10       29.95F
BEATRICE       MOSUNNY   88  67  50 S15       29.94F HX  91
FALLS CITY     MOSUNNY   91  68  46 S15       29.96S HX  95

...NORTHERN KANSAS...

CITY           SKY/WX    TMP DP  RH WIND       PRES   REMARKS
GOODLAND       MOSUNNY   87  54  32 SW6       29.99F
HILL CITY      SUNNY     91  59  33 VRB5      29.92F HX  90
NORTON         CLEAR     88  61  40 S6        29.92S
PHILLIPSBURG   SUNNY     90  61  37 CALM      29.91F
SMITH CENTER   SUNNY     91  57  31 S16G24    29.91F HX  90
HAYS           SUNNY     95  61  31 SW17      29.91F HX  95
RUSSELL        SUNNY     96  59  29 S24G31    29.90F HX  95
CONCORDIA      MOSUNNY   91  63  39 S20G30    29.93F HX  92
SALINA         MOSUNNY   94  63  35 S18G29    29.93F HX  95
TOPEKA         MOSUNNY   90  66  45 S13       29.98F HX  92



USA.gov is the U.S. government's official web portal to all federal, state and local government web resources and services.